CST,Max TemperatureF,Mean TemperatureF,Min TemperatureF,Max Dew PointF,MeanDew PointF,Min DewpointF,Max Humidity, Mean Humidity, Min Humidity, Max Sea Level PressureIn, Mean Sea Level PressureIn, Min Sea Level PressureIn, Max VisibilityMiles, Mean VisibilityMiles, Min VisibilityMiles, Max Wind SpeedMPH, Mean Wind SpeedMPH, Max Gust SpeedMPH,PrecipitationIn, CloudCover, Events, WindDirDegrees
2013-1-1,58,53,47,57,53,46,100,93,86,30.11,30.02,29.93,10,6,1,18,6,24,1.73,8,Rain,358
2013-1-2,47,42,37,45,38,34,100,93,85,30.26,30.18,30.09,10,9,6,16,8,21,0.01,8,Rain,351
2013-1-3,48,38,28,34,28,21,100,69,37,30.41,30.32,30.24,10,10,8,14,6,17,0.00,2,,352
2013-1-4,55,41,27,33,28,23,100,65,29,30.49,30.42,30.36,10,10,10,12,3,17,0.00,1,,353
2013-1-5,49,40,31,42,36,30,100,75,50,30.41,30.34,30.28,10,10,8,9,2,12,0.11,6,Rain,358
2013-1-6,56,45,33,43,39,33,100,77,54,30.34,30.29,30.23,10,9,1,12,4,15,0.04,5,Rain,356
2013-1-7,57,43,28,37,32,28,100,68,35,30.38,30.30,30.23,10,8,2,9,3,12,0.00,0,,20
2013-1-8,63,48,33,52,45,32,100,80,60,30.30,30.21,30.17,10,10,9,9,3,16,T,6,Rain,64
2013-1-9,63,59,54,61,57,52,100,93,86,30.28,30.24,30.21,10,7,3,14,5,18,0.13,8,Rain,72
2013-1-10,72,67,62,66,64,62,100,90,79,30.25,30.14,30.00,10,7,0,36,10,46,0.95,7,Fog-Rain,150
2013-1-11,69,66,62,67,65,61,100,97,93,30.12,30.06,30.03,10,5,1,16,6,18,1.29,8,Rain,186
2013-1-12,77,73,68,68,66,64,97,86,74,30.07,30.00,29.91,10,10,6,18,12,24,T,7,,176
2013-1-13,72,58,43,70,60,42,100,92,84,30.13,29.97,29.85,10,8,1,21,11,26,2.21,8,Rain,217
2013-1-14,43,39,35,43,38,34,100,95,89,30.25,30.16,30.11,10,6,1,22,11,26,0.92,8,Rain,12
2013-1-15,42,40,37,41,39,36,100,96,92,30.13,30.05,30.00,10,4,2,14,7,17,0.27,8,Rain,5
2013-1-16,39,38,37,38,36,36,100,96,92,30.11,30.07,30.02,10,7,2,13,7,16,0.35,8,Rain,348
2013-1-17,46,39,32,36,33,30,100,83,65,30.42,30.17,30.05,10,6,1,22,9,30,0.10,7,Rain-Snow,310
2013-1-18,56,43,29,37,31,27,100,68,35,30.57,30.47,30.41,10,9,3,9,4,13,0.00,0,,20
2013-1-19,60,44,28,43,34,27,100,72,44,30.41,30.34,30.25,10,9,1,10,2,13,0.00,0,,215
2013-1-20,65,48,30,43,35,30,100,66,31,30.29,30.22,30.14,10,8,0,6,0,9,0.00,0,Fog,-1
2013-1-21,61,46,31,42,34,26,100,72,43,30.26,30.21,30.15,10,9,5,15,4,22,0.00,0,,359
2013-1-22,53,43,33,37,26,19,85,57,29,30.42,30.34,30.27,10,10,10,12,4,16,0.00,4,,36
2013-1-23,67,51,34,47,41,33,93,69,45,30.39,30.31,30.25,10,10,9,13,4,17,0.00,4,,208
2013-1-24,62,52,42,54,50,41,100,86,72,30.34,30.27,30.23,10,9,6,10,4,12,0.00,6,,180
2013-1-25,73,62,50,56,53,50,100,75,49,30.23,30.18,30.09,10,8,2,21,8,28,T,5,,210
2013-1-26,57,51,45,54,45,39,96,80,63,30.31,30.25,30.17,10,10,7,14,6,15,T,7,Rain,32
2013-1-27,69,56,43,56,50,41,100,79,57,30.32,30.26,30.22,10,9,5,14,4,15,0.00,3,,185
2013-1-28,67,59,51,61,57,52,100,87,73,30.30,30.23,30.15,10,6,0,14,6,18,0.00,5,Fog,174
2013-1-29,78,70,61,66,64,61,100,79,58,30.14,29.95,29.75,10,9,6,26,14,35,T,7,,175
2013-1-30,72,56,39,67,53,28,100,77,53,30.11,29.75,29.62,10,7,1,26,12,37,1.65,7,Rain-Thunderstorm,244
2013-1-31,57,44,30,36,30,24,100,65,30,30.28,30.21,30.12,10,10,10,15,6,20,0.00,0,,234